ASTRA 2G

Last updated on Sun Nov 16 2025 00:03:42 GMT+0000 (Coordinated Universal Time)

1 40364U 14089A 25319.45755522 .00000157 00000+0 00000+0 0 9995 2 40364 0.0652 40.2535 0000824 344.9445 222.5487 1.00274361 39824
UTC large
Height (km)
Speed (km/s)
/
Latitude / Longitude
Inclination (degrees)
Orbital Period (minutes)
Azimuth
Elevation
Range (km)
Doppler Factor

Next 0 passes for location: London (51.5072 / 0.1276)

Sorry there are no passes over London.